This demonstration page uses our WeatherBlox Daily Observations layout. Learn more.

Left ArrowRight Arrow

Hourly Observations for January 1, 2020

Temp ( °F °C ) Dew Point ( °F °C ) Humidity (%) Winds ( mph kmh ) Pressure ( in mb ) Visibility ( mi km ) Precip ( " mm )
12:53 am 00:53 Clear 24 -4.4 16 -8.9 71 71 SSW 7 11 29.83 1010 10 16 0.00 0.00
1:53 am 01:53 Clear 25 -3.9 16 -8.9 69 69 SW 10 17 29.79 1009 10 16 0.00 0.00
2:53 am 02:53 Clear 23 -5 15 -9.4 72 72 SW 6 9 29.78 1008 10 16 0.00 0.00
3:53 am 03:53 Clear 21 -6.1 13 -10.6 71 71 SW 7 11 29.76 1008 10 16 0.00 0.00
4:53 am 04:53 Clear 23 -5 14 -10 68 68 SW 7 11 29.70 1006 10 16 0.00 0.00
5:53 am 05:53 Clear 23 -5 14 -10 68 68 S 5 7 29.67 1005 10 16 0.00 0.00
6:53 am 06:53 Clear 22 -5.6 14 -10 71 71 S 6 9 29.65 1004 10 16 0.00 0.00
7:53 am 07:53 Clear 21 -6.1 14 -10 74 74 SW 6 9 29.64 1004 10 16 0.00 0.00
8:53 am 08:53 Sunny 24 -4.4 17 -8.3 75 75 SW 8 13 29.62 1003 10 16 0.00 0.00
9:53 am 09:53 Sunny 27 -2.8 19 -7.2 72 72 SSW 6 9 29.59 1002 10 16 0.00 0.00
10:53 am 10:53 Sunny 30 -1.1 21 -6.1 69 69 SSW 13 20 29.56 1001 10 16 0.00 0.00
11:53 am 11:53 Sunny 32 0 23 -5 69 69 SW 9 15 29.52 1000 10 16 0.00 0.00
12:53 pm 12:53 Sunny 34 1.1 25 -3.9 70 70 SW 12 19 29.49 999 10 16 0.00 0.00
1:53 pm 13:53 Sunny 35 1.7 26 -3.3 70 70 SW 8 13 29.45 997 10 16 0.00 0.00
2:53 pm 14:53 Sunny 34 1.1 26 -3.3 73 73 SSW 10 17 29.46 998 10 16 0.00 0.00
3:53 pm 15:53 Sunny 36 2.2 27 -2.8 70 70 SW 9 15 29.48 998 10 16 0.00 0.00
4:53 pm 16:53 Mostly Cloudy 35 1.7 26 -3.3 70 70 SSW 8 13 29.46 998 10 16 0.00 0.00
5:53 pm 17:53 Mostly Cloudy 35 1.7 27 -2.8 72 72 SSW 9 15 29.45 997 10 16 0.00 0.00
6:53 pm 18:53 Clear 35 1.7 27 -2.8 72 72 SSW 8 13 29.46 998 10 16 0.00 0.00
7:53 pm 19:53 Clear 35 1.7 27 -2.8 72 72 SW 7 11 29.47 998 10 16 0.00 0.00
8:53 pm 20:53 Clear 33 0.6 28 -2.2 82 82 SW 5 7 29.47 998 10 16 0.00 0.00
9:53 pm 21:53 Clear 33 0.6 29 -1.7 85 85 W 5 7 29.46 998 10 16 0.00 0.00
10:53 pm 22:53 Partly Cloudy 35 1.7 31 -0.6 85 85 WSW 7 11 29.46 998 10 16 0.00 0.00
11:53 pm 23:53 Clear 34 1.1 31 -0.6 89 89 SW 5 7 29.46 998 10 16 0.00 0.00

Powered by AerisWeather